This is the latest recevied weather packets stored in our database for station/object SV9TNF-56. If no packets are shown the sender has not sent any weather packets the latest 10 day(s).
| Time | Temp. | Humidity | Pressure | Rain* | Wind** | Luminosity | Snow |
|---|---|---|---|---|---|---|---|
| 1787818293 | 27.78° C | 55% | 1018.3 hPa | 0 mm | 16.99 m/s, 120° | - | - |
| 1787817987 | 27.78° C | 55% | 1018.3 hPa | 0 mm | 7.15 m/s, 342° | - | - |
| 1787817687 | 27.78° C | 56% | 1018.6 hPa | 0 mm | 8.05 m/s, 125° | - | - |
| 1787817387 | 27.78° C | 56% | 1018.3 hPa | 0 mm | 8.49 m/s, 176° | - | - |
| 1787817087 | 27.22° C | 55% | 1018.3 hPa | 0 mm | 14.31 m/s, 187° | - | - |
| 1787816787 | 26.67° C | 59% | 1018.3 hPa | 0 mm | 14.31 m/s, 228° | - | - |
| 1787816487 | 26.67° C | 66% | 1018.3 hPa | 0 mm | 10.28 m/s, 156° | - | - |
| 1787816187 | 26.67° C | 67% | 1018.6 hPa | 0 mm | 16.09 m/s, 336° | - | - |
| 1787815886 | 26.67° C | 64% | 1018.6 hPa | 0 mm | 19.22 m/s, 234° | - | - |
| 1787815586 | 27.22° C | 63% | 1018.3 hPa | 0 mm | 22.35 m/s, 257° | - | - |
| 1787815289 | 27.22° C | 62% | 1018.3 hPa | 0 mm | 22.35 m/s, 245° | - | - |
| 1787814993 | 27.22° C | 61% | 1018 hPa | 0 mm | 26.38 m/s, 231° | - | - |
| 1787814686 | 27.22° C | 63% | 1018.3 hPa | 0 mm | 22.8 m/s, 228° | - | - |
| 1787814386 | 26.67° C | 64% | 1018 hPa | 0 mm | 20.56 m/s, 307° | - | - |
| 1787814086 | 26.67° C | 63% | 1018.3 hPa | 0 mm | 13.41 m/s, 231° | - | - |
| 1787813786 | 26.67° C | 63% | 1018 hPa | 0 mm | 13.86 m/s, 272° | - | - |
| 1787813486 | 26.67° C | 63% | 1018 hPa | 0 mm | 12.07 m/s, 283° | - | - |
| 1787813186 | 26.67° C | 63% | 1018 hPa | 0 mm | 6.26 m/s, 46° | - | - |
| 1787812885 | 26.67° C | 62% | 1018 hPa | 0 mm | 19.22 m/s, 300° | - | - |
| 1787812588 | 26.67° C | 61% | 1018 hPa | 0 mm | 7.6 m/s, 227° | - | - |
| 1787812285 | 26.67° C | 62% | 1018 hPa | 0 mm | 6.26 m/s, 120° | - | - |
| 1787811985 | 26.67° C | 62% | 1018 hPa | 0 mm | 3.13 m/s, 246° | - | - |
| 1787811685 | 26.67° C | 60% | 1017.6 hPa | 0 mm | 12.52 m/s, 198° | - | - |
| 1787811385 | 26.67° C | 59% | 1017.6 hPa | 0 mm | 15.2 m/s, 217° | - | - |
| 1787811085 | 26.67° C | 60% | 1018 hPa | 0 mm | 22.8 m/s, 253° | - | - |
* Rain latest hour (hover to see other rain measurements)
** Current wind speed in m/s (hover to see current wind gust speed)